TimeCDT,TemperatureF,Dew PointF,Humidity,Sea Level PressureIn,VisibilityMPH,Wind Direction,Wind SpeedMPH,Gust SpeedMPH,PrecipitationIn,Events,Conditions,WindDirDegrees,DateUTC
12:13 AM,69.8,62.6,78,29.81,10.0,SE,10.4,-,N/A,,Clear,130,2013-06-15 05:13:00
12:33 AM,69.8,62.6,78,29.81,10.0,SE,9.2,-,N/A,,Clear,130,2013-06-15 05:33:00
12:53 AM,69.8,62.6,78,29.83,10.0,SE,10.4,-,N/A,,Clear,130,2013-06-15 05:53:00
1:13 AM,69.8,62.6,78,29.84,10.0,SE,8.1,-,N/A,,Clear,130,2013-06-15 06:13:00
1:33 AM,69.8,62.6,78,29.84,10.0,SE,8.1,-,N/A,,Clear,140,2013-06-15 06:33:00
1:53 AM,69.8,62.6,78,29.84,10.0,SSE,8.1,-,N/A,,Clear,160,2013-06-15 06:53:00
2:13 AM,69.8,64.4,83,29.84,10.0,South,5.8,-,N/A,,Clear,170,2013-06-15 07:13:00
2:34 AM,69.8,64.4,83,29.84,10.0,South,4.6,-,N/A,,Clear,190,2013-06-15 07:34:00
2:53 AM,68.0,62.6,83,29.84,10.0,SSW,4.6,-,N/A,,Clear,210,2013-06-15 07:53:00
3:13 AM,66.2,62.6,88,29.84,10.0,West,3.5,-,N/A,,Clear,270,2013-06-15 08:13:00
3:33 AM,64.4,60.8,88,29.84,10.0,NW,3.5,-,N/A,,Clear,310,2013-06-15 08:33:00
3:53 AM,64.4,60.8,88,29.83,10.0,Calm,Calm,-,N/A,,Clear,0,2013-06-15 08:53:00
4:13 AM,62.6,60.8,94,29.83,7.0,Calm,Calm,-,N/A,,Clear,0,2013-06-15 09:13:00
4:33 AM,62.6,59.0,88,29.83,4.0,Calm,Calm,-,N/A,,Clear,0,2013-06-15 09:33:00
4:54 AM,62.6,60.8,94,29.86,5.0,WNW,3.5,-,N/A,,Clear,300,2013-06-15 09:54:00
5:13 AM,62.6,59.0,88,29.86,5.0,WNW,4.6,-,N/A,,Clear,290,2013-06-15 10:13:00
5:33 AM,62.6,60.8,94,29.85,7.0,West,4.6,-,N/A,,Clear,280,2013-06-15 10:33:00
5:53 AM,64.4,62.6,94,29.86,10.0,WNW,6.9,-,N/A,,Clear,300,2013-06-15 10:53:00
6:14 AM,66.2,62.6,88,29.88,10.0,WNW,9.2,-,N/A,,Clear,300,2013-06-15 11:14:00
6:33 AM,66.2,62.6,88,29.91,10.0,NW,11.5,-,N/A,,Clear,310,2013-06-15 11:33:00
6:53 AM,66.2,60.8,83,29.91,10.0,NW,13.8,18.4,N/A,,Clear,320,2013-06-15 11:53:00
7:14 AM,66.2,59.0,78,29.90,10.0,NNW,16.1,-,N/A,,Clear,340,2013-06-15 12:14:00
7:33 AM,66.2,55.4,68,29.88,10.0,North,16.1,-,N/A,,Clear,350,2013-06-15 12:33:00
7:54 AM,68.0,55.4,64,29.89,10.0,North,13.8,-,N/A,,Clear,350,2013-06-15 12:54:00
8:13 AM,69.8,55.4,60,29.91,10.0,North,11.5,-,N/A,,Clear,350,2013-06-15 13:13:00
8:33 AM,69.8,55.4,60,29.93,10.0,NNW,10.4,-,N/A,,Clear,340,2013-06-15 13:33:00
8:54 AM,69.8,55.4,60,29.93,10.0,NNW,12.7,-,N/A,,Clear,340,2013-06-15 13:54:00
9:13 AM,71.6,53.6,53,29.95,10.0,NNW,10.4,-,N/A,,Clear,340,2013-06-15 14:13:00
9:33 AM,71.6,53.6,53,29.94,10.0,North,11.5,-,N/A,,Clear,350,2013-06-15 14:33:00
9:53 AM,71.6,51.8,50,29.94,10.0,North,10.4,-,N/A,,Clear,360,2013-06-15 14:53:00
10:13 AM,71.6,51.8,50,29.94,10.0,North,9.2,-,N/A,,Clear,10,2013-06-15 15:13:00
10:33 AM,71.6,50.0,46,29.93,10.0,North,10.4,-,N/A,,Clear,360,2013-06-15 15:33:00
10:53 AM,71.6,51.8,50,29.93,10.0,North,8.1,-,N/A,,Clear,360,2013-06-15 15:53:00
11:13 AM,73.4,50.0,44,29.92,10.0,NNE,8.1,-,N/A,,Clear,20,2013-06-15 16:13:00
11:33 AM,73.4,51.8,47,29.91,10.0,North,9.2,-,N/A,,Clear,360,2013-06-15 16:33:00
11:53 AM,73.4,51.8,47,29.90,10.0,North,11.5,-,N/A,,Clear,360,2013-06-15 16:53:00
12:14 PM,73.4,51.8,47,29.92,10.0,North,9.2,16.1,N/A,,Clear,360,2013-06-15 17:14:00
12:33 PM,75.2,51.8,44,29.94,10.0,NNW,5.8,-,N/A,,Clear,340,2013-06-15 17:33:00
12:53 PM,75.2,50.0,41,29.93,10.0,Calm,Calm,-,N/A,,Clear,0,2013-06-15 17:53:00
1:13 PM,77.0,48.2,36,29.93,10.0,NNW,9.2,-,N/A,,Clear,340,2013-06-15 18:13:00
1:33 PM,78.8,48.2,34,29.93,10.0,North,11.5,-,N/A,,Clear,10,2013-06-15 18:33:00
1:53 PM,78.8,46.4,32,29.93,10.0,NNW,10.4,-,N/A,,Clear,340,2013-06-15 18:53:00
2:13 PM,78.8,46.4,32,29.92,10.0,North,9.2,17.3,N/A,,Clear,360,2013-06-15 19:13:00
2:33 PM,78.8,44.6,30,29.92,10.0,NNW,4.6,-,N/A,,Clear,340,2013-06-15 19:33:00
2:53 PM,80.6,42.8,26,29.92,10.0,North,9.2,-,N/A,,Clear,10,2013-06-15 19:53:00
3:13 PM,80.6,39.2,23,29.91,10.0,NW,6.9,16.1,N/A,,Clear,310,2013-06-15 20:13:00
3:33 PM,80.6,39.2,23,29.91,10.0,NNW,6.9,-,N/A,,Clear,340,2013-06-15 20:33:00
3:54 PM,80.6,39.2,23,29.90,10.0,Calm,Calm,-,N/A,,Clear,0,2013-06-15 20:54:00
4:13 PM,80.6,39.2,23,29.90,10.0,NW,3.5,-,N/A,,Clear,320,2013-06-15 21:13:00
4:33 PM,80.6,42.8,26,29.90,10.0,WNW,9.2,-,N/A,,Clear,300,2013-06-15 21:33:00
4:53 PM,78.8,41.0,26,29.89,10.0,WNW,11.5,-,N/A,,Scattered Clouds,300,2013-06-15 21:53:00
5:13 PM,80.6,42.8,26,29.89,10.0,NW,9.2,-,N/A,,Clear,310,2013-06-15 22:13:00
5:33 PM,80.6,42.8,26,29.88,10.0,WNW,9.2,-,N/A,,Clear,290,2013-06-15 22:33:00
5:53 PM,80.6,42.8,26,29.88,10.0,WNW,4.6,-,N/A,,Clear,290,2013-06-15 22:53:00
6:13 PM,80.6,44.6,28,29.87,10.0,West,8.1,-,N/A,,Clear,280,2013-06-15 23:13:00
6:33 PM,80.6,44.6,28,29.87,10.0,West,10.4,-,N/A,,Clear,270,2013-06-15 23:33:00
6:53 PM,80.6,44.6,28,29.87,10.0,West,10.4,-,N/A,,Clear,260,2013-06-15 23:53:00
7:13 PM,80.6,41.0,24,29.87,10.0,West,15.0,19.6,N/A,,Clear,280,2013-06-16 00:13:00
7:33 PM,78.8,39.2,24,29.87,10.0,WNW,13.8,-,N/A,,Clear,290,2013-06-16 00:33:00
7:53 PM,78.8,42.8,28,29.87,10.0,WNW,10.4,-,N/A,,Clear,290,2013-06-16 00:53:00
8:14 PM,75.2,44.6,34,29.88,10.0,West,4.6,-,N/A,,Clear,280,2013-06-16 01:14:00
8:33 PM,75.2,46.4,36,29.88,10.0,West,4.6,-,N/A,,Clear,270,2013-06-16 01:33:00
8:53 PM,73.4,46.4,38,29.87,10.0,WSW,3.5,-,N/A,,Clear,240,2013-06-16 01:53:00
9:13 PM,73.4,48.2,41,29.88,10.0,Calm,Calm,-,N/A,,Clear,0,2013-06-16 02:13:00
9:33 PM,69.8,51.8,53,29.88,10.0,SW,3.5,-,N/A,,Clear,220,2013-06-16 02:33:00
9:53 PM,66.2,57.2,73,29.89,10.0,SW,3.5,-,N/A,,Clear,220,2013-06-16 02:53:00
10:14 PM,66.2,50.0,56,29.90,10.0,WSW,4.6,-,N/A,,Clear,240,2013-06-16 03:14:00
10:33 PM,64.4,50.0,59,29.91,10.0,WSW,5.8,-,N/A,,Clear,240,2013-06-16 03:33:00
10:53 PM,64.4,48.2,56,29.91,10.0,SW,5.8,-,N/A,,Clear,230,2013-06-16 03:53:00
11:13 PM,64.4,50.0,59,29.91,10.0,SW,5.8,-,N/A,,Clear,230,2013-06-16 04:13:00
11:33 PM,64.4,50.0,59,29.91,10.0,SW,5.8,-,N/A,,Clear,230,2013-06-16 04:33:00
11:54 PM,62.6,51.8,68,29.92,10.0,WSW,5.8,-,N/A,,Clear,240,2013-06-16 04:54:00